Flag for Greenland Weather past 2 weeks in Danmarkshavn, Greenland

Now
27 °F

Passing clouds.


Feels Like: 17 °F
Forecast: N/A
Wind: 12 mph from Northeast

Location: Danmarkshavn

Current Time: Jun 2, 2015 at 10:11:56 PM

Latest Report: Jun 2, 2015 at 8:00 PM


Visibility: 31 mi

Pressure: 30.17 "Hg

Humidity: 77%

Dew point: 21 °F

Location of DanmarkshavnLocation

Historic Weather in Danmarkshavn — Graph

°F

Danmarkshavn temperature yesterday

Maximum temperature yesterday: 31 °F (at 3:00 PM)
Minimum temperature yesterday: 22 °F (at 5:00 AM)
Average temperature yesterday: 28 °F

Past Weeks' High & Low Weather Summary

 TemperatureHumidityPressure
High34 °F (Jun 2, 6:00 PM)93% (May 18, 10:00 PM)30.30 "Hg (May 18, 10:00 PM)
Low7 °F (May 23, 4:00 AM)51% (May 24, 3:00 PM)29.58 "Hg (May 23, 3:00 PM)
Average23 °F77%30.01 "Hg
* Reported May 18 8:00 PM — Jun 2 8:00 PM, Danmarkshavn, Weather by CustomWeather, © 2015

Note: Actual official high and low records may vary slightly from our data, if they occured in-between our weather recording intervals... More about our weather records

Advertising

Danmarkshavn weather history for previous 24 hours

 ConditionsComfort  
Time TempWeatherWind HumidityBarometerVisibility
8:00 PM
Tue, Jun 2
27 °FPassing clouds.12 mph77%30.17 "Hg31 mi
7:00 PM28 °FSunny.15 mph76%30.17 "Hg31 mi
6:00 PM34 °FSunny.2 mph65%30.17 "Hg25 mi
5:00 PM31 °FPassing clouds.3 mph71%30.17 "Hg28 mi
3:00 PM29 °FSunny.3 mph76%30.18 "Hg25 mi
2:00 PM29 °FSunny.3 mph74%30.19 "Hg28 mi
1:00 PM29 °FSunny.2 mph70%30.19 "Hg28 mi
12:00 PM27 °FSunny.5 mph73%30.19 "Hg25 mi
11:00 AM27 °FPassing clouds.5 mph75%30.19 "Hg22 mi
10:00 AM26 °FSunny.3 mph73%30.20 "Hg28 mi
9:00 AM26 °FSunny.2 mph74%30.20 "Hg25 mi
8:00 AM25 °FSunny.1 mph76%30.20 "Hg28 mi
7:00 AM24 °FSunny.2 mph77%30.20 "Hg25 mi
6:00 AM23 °FSunny.2 mph78%30.20 "Hg25 mi
5:00 AM24 °FSunny.5 mph78%30.21 "Hg28 mi
4:00 AM19 °FPassing clouds.2 mph85%30.21 "Hg25 mi
3:00 AM24 °FPassing clouds.3 mph77%30.20 "Hg28 mi
2:00 AM23 °FSunny.13 mph80%30.21 "Hg28 mi
1:00 AM24 °FPassing clouds.7 mph80%30.21 "Hg25 mi
12:00 AM26 °FChilly.5 mph77%30.21 "Hg19 mi
11:00 PM
Mon, Jun 1
27 °FPassing clouds.2 mph72%30.21 "Hg25 mi
10:00 PM28 °FSunny.9 mph75%30.21 "Hg31 mi
Weather by CustomWeather, © 2015

See weather overviewHow to use our weather pages